Date String (YYYY-MM-DD hh:mm:ss) UTC,Instrument flags,Ambient pressure (hPa),Sample flow (lpm),Bypass flow (lpm),Sample temperature (°C),Ambient temperature (°C),ASC tube jacket temperature (°C),LED temperature (°C),Box temperature (°C),Sample RH (%),Span deviation,Mass concentration (μg/m³),Mass concentration (μg/m³),Mass concentration (μg/m³)
DateTimeUTC,F1_M11,P_M11,Q1_M11,Q2_M11,T1_M11,T2_M11,T3_M11,T4_M11,T5_M11,U1_M11,ZSPAN_M11,X0_M11,X2_M11,X1_M11
2021-09-09 10:00:00,,0830.7,5.00,0.00,30.0,29.0,00.0,39.1,31.8,17.1,0002.3,0035.71,0024.44,0022.59
2021-09-09 10:01:00,,0830.8,5.00,0.00,30.0,29.0,00.0,39.1,31.8,17.2,0002.3,0035.97,0024.46,0022.59
2021-09-09 10:02:00,,0830.8,5.00,0.00,30.0,29.0,00.0,39.1,31.8,17.1,0002.1,0036.45,0024.56,0022.63
2021-09-09 10:03:00,,0830.8,5.01,0.00,30.1,29.0,00.0,39.1,31.8,16.8,0002.3,0036.52,0024.58,0022.66
2021-09-09 10:04:00,,0830.8,5.00,0.00,30.1,29.0,00.0,39.1,31.8,16.8,0002.3,0034.54,0024.48,0022.62
2021-09-09 10:05:00,,0830.8,5.00,0.00,30.1,29.0,00.0,39.1,31.8,16.6,0002.3,0034.66,0024.46,0022.61
2021-09-09 10:06:00,,0830.8,5.01,0.00,30.1,29.0,00.0,39.2,31.9,16.7,0002.4,0034.70,0024.50,0022.63
2021-09-09 10:07:00,,0830.8,5.00,0.00,30.1,29.1,00.0,39.2,31.9,17.1,0002.6,0035.26,0024.61,0022.67
2021-09-09 10:08:00,,0830.8,4.99,0.00,30.1,29.1,00.0,39.2,31.9,17.1,0002.3,0035.20,0024.63,0022.69
2021-09-09 10:09:00,,0830.8,5.00,0.00,30.1,29.1,00.0,39.2,31.9,16.8,0002.4,0035.42,0024.58,0022.68
2021-09-09 10:10:00,,0830.8,5.02,0.00,30.1,29.1,00.0,39.2,31.9,16.8,0002.3,0035.42,0024.51,0022.66
2021-09-09 10:11:00,,0830.8,4.99,0.00,30.2,29.1,00.0,39.2,31.9,16.8,0002.3,0035.69,0024.55,0022.67
2021-09-09 10:12:00,,0830.8,5.01,0.00,30.2,29.1,00.0,39.2,31.9,16.7,0002.2,0035.33,0024.62,0022.69
2021-09-09 10:13:00,,0830.8,5.00,0.00,30.2,29.1,00.0,39.3,31.9,16.4,0001.8,0034.90,0024.56,0022.67
2021-09-09 10:14:00,,0830.7,5.00,0.00,30.2,29.1,00.0,39.3,31.9,16.4,0001.7,0035.31,0024.55,0022.64
2021-09-09 10:15:00,,0830.8,5.00,0.00,30.2,29.2,00.0,39.3,31.9,16.4,0001.7,0036.45,0024.59,0022.65
2021-09-09 10:16:00,,0830.8,5.00,0.00,30.2,29.2,00.0,39.3,32.0,16.1,0001.6,0036.68,0024.57,0022.67
2021-09-09 10:17:00,,0830.8,5.00,0.00,30.2,29.2,00.0,39.3,32.0,16.9,0001.4,0036.24,0024.53,0022.68
2021-09-09 10:18:00,,0830.8,4.98,0.00,30.3,29.2,00.0,39.3,32.0,16.6,0001.4,0035.62,0024.41,0022.63
2021-09-09 10:19:00,,0830.8,5.01,0.00,30.3,29.2,00.0,39.3,32.0,16.0,0001.5,0036.55,0024.42,0022.65
2021-09-09 10:20:00,,0830.7,5.00,0.00,30.3,29.2,00.0,39.3,32.0,15.8,0001.1,0036.13,0024.43,0022.66
2021-09-09 10:21:00,,0830.8,5.00,0.00,30.3,29.3,00.0,39.3,32.0,15.7,0000.9,0037.37,0024.53,0022.73
2021-09-09 10:22:00,,0830.7,5.01,0.00,30.3,29.3,00.0,39.4,32.0,15.7,0000.5,0038.70,0024.60,0022.78
2021-09-09 10:23:00,,0830.8,4.99,0.00,30.3,29.3,00.0,39.4,32.0,16.2,0000.7,0038.56,0024.57,0022.78
2021-09-09 10:24:00,,0830.8,5.01,0.00,30.3,29.3,00.0,39.4,32.0,16.4,0001.2,0038.39,0024.61,0022.81
2021-09-09 10:25:00,,0830.7,5.00,0.00,30.3,29.3,00.0,39.4,32.0,15.9,0001.4,0037.96,0024.66,0022.85
2021-09-09 10:26:00,,0830.8,4.99,0.00,30.3,29.3,00.0,39.4,32.0,15.8,0001.5,0037.42,0024.72,0022.85
2021-09-09 10:27:00,,0830.7,5.00,0.00,30.3,29.3,00.0,39.4,32.0,16.0,0001.3,0036.84,0024.72,0022.86
2021-09-09 10:28:00,,0830.7,5.01,0.00,30.3,28.6,00.0,39.4,31.9,16.3,0001.2,0037.69,0024.81,0022.89
2021-09-09 10:29:00,,0830.6,5.00,0.00,30.2,26.5,00.0,39.4,31.4,15.8,0001.0,0037.69,0024.82,0022.95
2021-09-09 10:30:00,,0830.6,4.99,0.00,30.0,26.2,00.0,39.3,31.3,15.7,0000.8,0037.14,0024.82,0022.95
2021-09-09 10:31:00,,0830.6,5.01,0.00,29.9,26.6,00.0,39.3,31.3,15.9,0001.3,0037.35,0024.80,0022.94
2021-09-09 10:32:00,,0830.6,4.99,0.00,29.9,27.0,00.0,39.2,31.3,15.8,0001.6,0038.30,0024.76,0022.88
2021-09-09 10:33:00,,0830.6,5.01,0.00,29.8,27.3,00.0,39.2,31.3,15.8,0001.8,0037.62,0024.65,0022.80
2021-09-09 10:34:00,,0830.6,5.01,0.00,29.8,27.6,00.0,39.1,31.3,16.3,0001.9,0038.35,0024.56,0022.74
2021-09-09 10:35:00,,0830.6,4.99,0.00,29.8,27.9,00.0,39.1,31.4,16.2,0001.9,0038.67,0024.54,0022.70
2021-09-09 10:36:00,,0830.6,5.01,0.00,29.8,28.1,00.0,39.1,31.4,16.0,0001.8,0038.94,0024.56,0022.67
2021-09-09 10:37:00,,0830.6,5.00,0.00,29.8,28.2,00.0,39.1,31.4,15.6,0001.9,0039.32,0024.51,0022.69
2021-09-09 10:38:00,,0830.6,5.00,0.00,29.8,28.3,00.0,39.1,31.5,15.5,0002.3,0039.17,0024.48,0022.65
2021-09-09 10:39:00,,0830.6,4.99,0.00,29.8,28.4,00.0,39.1,31.5,15.1,0002.6,0038.60,0024.39,0022.61
2021-09-09 10:40:00,,0830.6,5.01,0.00,29.9,28.5,00.0,39.1,31.5,14.7,0002.5,0038.92,0024.35,0022.57
2021-09-09 10:41:00,,0830.6,5.00,0.00,29.9,28.6,00.0,39.0,31.5,14.9,0002.6,0040.76,0024.32,0022.54
2021-09-09 10:42:00,,0830.6,4.99,0.00,29.9,28.6,00.0,39.0,31.6,15.1,0002.2,0041.17,0024.27,0022.52
2021-09-09 10:43:00,,0830.6,5.02,0.00,29.9,28.6,00.0,39.0,31.6,14.9,0002.1,0039.75,0024.28,0022.55
2021-09-09 10:44:00,,0830.6,5.01,0.00,29.9,28.7,00.0,39.0,31.6,14.8,0002.2,0038.65,0024.23,0022.57
2021-09-09 10:45:00,,0830.6,5.00,0.00,29.9,28.7,00.0,39.1,31.6,14.7,0002.0,0037.89,0024.29,0022.66
2021-09-09 10:46:00,,0830.6,4.99,0.00,29.9,28.7,00.0,39.1,31.7,14.6,0001.6,0037.53,0024.28,0022.68
2021-09-09 10:47:00,,0830.6,4.99,0.00,30.0,28.8,00.0,39.1,31.7,14.6,0001.4,0037.33,0024.23,0022.68
2021-09-09 10:48:00,,0830.6,4.99,0.00,30.0,28.8,00.0,39.1,31.7,14.7,0001.1,0036.84,0024.19,0022.67
2021-09-09 10:49:00,,0830.6,5.00,0.00,30.0,28.8,00.0,39.1,31.7,14.6,0001.1,0036.32,0024.21,0022.69
2021-09-09 10:50:00,,0830.6,5.00,0.00,30.0,28.8,00.0,39.1,31.7,14.7,0000.8,0036.14,0024.22,0022.69
2021-09-09 10:51:00,,0830.6,5.01,0.00,30.0,28.9,00.0,39.1,31.7,14.6,0000.8,0036.51,0024.29,0022.74
2021-09-09 10:52:00,,0830.6,5.00,0.00,30.0,28.9,00.0,39.1,31.8,14.6,0000.8,0035.13,0024.31,0022.74
2021-09-09 10:53:00,,0830.6,4.99,0.00,30.0,28.9,00.0,39.1,31.8,14.4,0001.2,0034.50,0024.42,0022.80
2021-09-09 10:54:00,,0830.6,5.01,0.00,30.1,28.9,00.0,39.1,31.7,14.4,0001.5,0034.73,0024.41,0022.79
2021-09-09 10:55:00,,0830.6,5.01,0.00,30.1,29.0,00.0,39.1,31.8,14.7,0001.3,0034.69,0024.45,0022.80
2021-09-09 10:56:00,,0830.6,5.00,0.00,30.1,29.0,00.0,39.2,31.8,14.5,0001.3,0034.30,0024.42,0022.75
2021-09-09 10:57:00,,0830.6,4.99,0.00,30.1,29.0,00.0,39.2,31.8,14.6,0001.4,0034.25,0024.39,0022.75
2021-09-09 10:58:00,,0830.6,5.00,0.00,30.1,29.1,00.0,39.2,31.8,14.5,0001.2,0034.76,0024.42,0022.76
2021-09-09 10:59:00,,0830.6,5.00,0.00,30.1,29.1,00.0,39.2,31.8,14.3,0001.2,0034.88,0024.47,0022.77
